sat.trackr.live / text

‹ back to catalog

STARLINK-36217

NORAD 67120 · 2025-299U

PAYLOAD ACTIVE UNKNOWN

§ Identity

Operator
Country
US
Launch date
2025-12-15
Launch site
AFETR
Launch vehicle
Mass (kg)
RCS (m²)

Purposes: comms

External: N2YO · Heavens-Above · Gunter

§ Orbital elements

Epoch: 2026-05-25T04:45:44.767584Z

Period
94.27 min
Inclination
43.0013°
Eccentricity
0.0002131
Mean motion
15.27594562 rev/d
Perigee alt
481.5 km
Apogee alt
484.5 km
Semi-major
6,861.1 km
B*
5.4313e-4
RAAN
97.2178°
Arg perigee
253.2157°
Mean anomaly
106.8461°
Rev number
2,481

§ Raw data

STARLINK-362171 67120U 25299U   26145.19843481  .00014720  00000+0  54313-3 0  99912 67120  43.0013  97.2178 0002131 253.2157 106.8461 15.27594562 24812

JSON: /api/v1/satellites/67120 · /tle

For live sub-satellite position, see the globe view (requires WebGL).

§ Visibility from observer

Set your observer location to see the next 7 days of passes ≥ 10°. The values pass through the URL so the page stays shareable.

No JS? Fill the form by hand. The geolocation button needs JavaScript.